This is the latest recevied weather packets stored in our database for station/object HS5SQI-1. If no packets are shown the sender has not sent any weather packets the latest 10 day(s).
| Time | Temp. | Humidity | Pressure | Rain* | Wind** | Luminosity | Snow |
|---|---|---|---|---|---|---|---|
| 1777619246 | 33.89° C | 72% | 964 hPa | - | - | 0 W/m² | - |
| 1777618624 | 33.89° C | 70% | 964 hPa | - | - | 0 W/m² | - |
| 1777618002 | 33.89° C | 75% | 964 hPa | - | - | 0 W/m² | - |
| 1777617380 | 33.89° C | 75% | 965 hPa | - | - | 0 W/m² | - |
| 1777616758 | 33.89° C | 72% | 965 hPa | - | - | 0 W/m² | - |
| 1777616136 | 33.33° C | 81% | 965 hPa | - | - | 0 W/m² | - |
| 1777615514 | 33.33° C | 76% | 965 hPa | - | - | 0 W/m² | - |
| 1777614892 | 33.33° C | 88% | 965 hPa | - | - | 0 W/m² | - |
| 1777614270 | 33.33° C | 89% | 965 hPa | - | - | 0 W/m² | - |
| 1777613647 | 32.78° C | 96% | 966 hPa | - | - | 0 W/m² | - |
| 1777613026 | 32.78° C | 99% | 966 hPa | - | - | 0 W/m² | - |
| 1777612404 | 31.67° C | 99% | 966 hPa | - | - | 0 W/m² | - |
| 1777611782 | 31.67° C | 99% | 966 hPa | - | - | 0 W/m² | - |
| 1777611160 | 32.22° C | 99% | 966 hPa | - | - | 0 W/m² | - |
| 1777610538 | 31.67° C | 99% | 967 hPa | - | - | 0 W/m² | - |
| 1777609916 | 30.56° C | 99% | 967 hPa | - | - | 0 W/m² | - |
| 1777609294 | 30.56° C | 99% | 967 hPa | - | - | 0 W/m² | - |
| 1777608672 | 30.56° C | 99% | 967 hPa | - | - | 0 W/m² | - |
| 1777608050 | 30.56° C | 99% | 967 hPa | - | - | 0 W/m² | - |
| 1777607428 | 29.44° C | 99% | 967 hPa | - | - | 0 W/m² | - |
| 1777606805 | 29.44° C | 99% | 967 hPa | - | - | 0 W/m² | - |
| 1777606183 | 30° C | 99% | 967 hPa | - | - | 0 W/m² | - |
| 1777605562 | 28.89° C | 99% | 967 hPa | - | - | 0 W/m² | - |
| 1777604940 | 28.33° C | 99% | 968 hPa | - | - | 0 W/m² | - |
| 1777604318 | 28.89° C | 99% | 968 hPa | - | - | 0 W/m² | - |
* Rain since midnight (hover to see other rain measurements)
** Current wind speed in m/s (hover to see current wind gust speed)